Weather History for Greenville, ME

Change the Weather History Date:

Tuesday, March 20, 2012

  Actual Average (KMLT) Record (KMLT)
Temperature  
Mean Temperature 54 °F 29 °F  
Max Temperature 73 °F 39 °F 76 °F (2012)
Min Temperature 37 °F 19 °F -9 °F (1993)
Degree Days  
Heating Degree Days 10 36  
Month to date heating degree days 777  
Since 1 July heating degree days 6829  
Cooling Degree Days 0 0  
Month to date cooling degree days 0  
Year to date cooling degree days 0  
Growing Degree Days 4 (Base 50)    
Moisture  
Dew Point 43 °F    
Average Humidity 64    
Maximum Humidity 89    
Minimum Humidity 38    
Precipitation  
Precipitation 0.00 in 0.13 in 0.98 in (1922)
Month to date precipitation 1.72  
Year to date precipitation 6.83  
Sea Level Pressure  
Sea Level Pressure 30.22 in    
Wind  
Wind Speed 3 mph (NNW)    
Max Wind Speed 9 mph    
Max Gust Speed -    
T = Trace of Precipitation, MM = Missing Value Source: NWS Daily Summary

Daily Weather History Graph

Daily Weather History Graph

Search for Another Location

Airport:

Trip Planner

Search our weather history database for the weather conditions in past years. The results will help you decide how hot, cold, wet, or windy it might be!

Date:

Astronomy

Mar. 20, 2012 Rise Set
Actual Time 6:40 AM EDT 6:51 PM EDT
Civil Twilight 6:11 AM EDT 7:21 PM EDT
Nautical Twilight 5:36 AM EDT 7:55 PM EDT
Astronomical Twilight 5:00 AM EDT 8:31 PM EDT
Moon 5:25 AM EDT (3/20) 5:13 PM EDT (3/20)
Length of Visible Light 13h 09m
Length of Day
12h 10m
Waning Crescent, 4% of the Moon is Illuminated
Mar 20
Waning Crescent
Mar 22
New
Mar 30
First Quarter
Apr 6
Full
Apr 13
Last Quarter

Hourly Weather History & Observations

Time (EDT) Temp. Windchill Dew Point Humidity Pressure Visibility Wind Dir Wind Speed Gust Speed Precip Events Conditions
12:56 AM 39.9 °F 36.7 °F 35.1 °F 83% 30.28 in - SE 4.6 mph - N/A   Unknown
1:56 AM 39.0 °F 36.8 °F 35.1 °F 86% 30.28 in - SE 3.5 mph - N/A   Unknown
2:56 AM 37.9 °F 33.5 °F 34.0 °F 86% 30.26 in - ESE 5.8 mph - N/A   Unknown
3:56 AM 37.0 °F 33.3 °F 34.0 °F 89% 30.25 in - ESE 4.6 mph - N/A   Unknown
4:56 AM 37.9 °F - 35.1 °F 89% 30.24 in - Calm Calm - N/A   Unknown
5:56 AM 39.0 °F - 36.0 °F 89% 30.23 in - Calm Calm - N/A   Unknown
6:56 AM 37.0 °F - 34.0 °F 89% 30.24 in - Calm Calm - N/A   Unknown
7:56 AM 46.0 °F - 39.0 °F 76% 30.24 in - Calm Calm - N/A   Unknown
8:56 AM 54.0 °F - 41.0 °F 62% 30.25 in - Calm Calm - N/A   Unknown
9:56 AM 59.0 °F - 43.0 °F 55% 30.25 in - Calm Calm - N/A   Unknown
10:56 AM 63.0 °F - 46.0 °F 54% 30.24 in - NNW 3.5 mph - N/A   Unknown
11:56 AM 66.9 °F - 48.0 °F 51% 30.22 in - Variable 4.6 mph - N/A   Unknown
12:56 PM 70.0 °F - 48.9 °F 47% 30.21 in - Variable 3.5 mph - N/A   Unknown
1:56 PM 71.1 °F - 46.9 °F 42% 30.19 in - NW 9.2 mph - N/A   Unknown
2:56 PM 72.0 °F - 45.0 °F 38% 30.17 in - WNW 5.8 mph - N/A   Unknown
3:56 PM 72.0 °F - 46.0 °F 40% 30.16 in - NW 5.8 mph - N/A   Unknown
4:56 PM 71.1 °F - 44.1 °F 38% 30.15 in - Variable 4.6 mph - N/A   Unknown
5:56 PM 66.9 °F - 45.0 °F 45% 30.17 in - Calm Calm - N/A   Unknown
6:56 PM 63.0 °F - 45.0 °F 52% 30.19 in - Calm Calm - N/A   Unknown
7:56 PM 60.1 °F - 46.0 °F 60% 30.19 in - Variable 3.5 mph - N/A   Unknown
8:56 PM 60.1 °F - 48.0 °F 64% 30.21 in - NW 3.5 mph - N/A   Unknown
9:56 PM 59.0 °F - 48.9 °F 69% 30.22 in - Calm Calm - N/A   Unknown
10:56 PM 57.9 °F - 48.9 °F 72% 30.22 in - NNW 3.5 mph - N/A   Unknown
11:56 PM 57.9 °F - 48.0 °F 70% 30.22 in - NNW 6.9 mph - N/A   Unknown